THORAD AGENA D DEB *, 5967

Orbit data source: Space-Track

THORAD AGENA D DEB *, 5967 is space debris in SSO originally from a launch on Wed, 08 Apr 1970 UTC launched from the Air Force Western Test Range (AFWTR). Debris objects in space refer to the collection of defunct objects orbiting the Earth. Examples of debris include non-operational satellites, rocket bodies, and fragments generated from explosions, collisions, or faulty payload assembly.

Loading next visibility...
Identifier
5967, 1970-025MQ
Orbit
SSO
Country
Flag of USUS
Related business
Manufacturer
Unknown
Mission
Spacecraft
Bus & Motor
Unknown
Mass
Unknown
Launch date (UTC)
1970-04-08 (56 years ago)
Launch vehicle
Unknown
Launch site
Air Force Western Test Range (AFWTR)
Object type
Payload
Rocket body
Debris
Shape & HBR
Unknown shape, 0.1 m
Radar Cross Section
Medium (>0.1 m² and <1 m²)

Expand to show TLE details & history
Last TLE update: 10 hours ago

TLE from 10 hours ago
0 THORAD AGENA D DEB *
1  5967U 70025MQ  26166.96579640  .00000063  00000-0  40247-3 0  9997
2  5967 101.6477  60.4232 0122241 262.1887 117.7995 12.93291121638296
Epoch: 2026-06-15T23:10Z
TLE epoch observation values (Epoch: 2026-06-15T23:10:44.808Z)
Latitude
20.76971°
Longitude
164.0303°
Altitude
1,335.404 km
Speed
7.171 km/s
True Right ascension
03h 43m 50s
True Declination
20° 39' 52"
Sunlit
Object was in daylight at epoch
Visualization orbit readout
Latitude
Unknown
Longitude
Unknown
Altitude
Unknown
Speed
Unknown
Apparent Right ascension
Unknown
Apparent Declination
Unknown
Sunlit
N/A
Visualization observer readout
Local Sidereal Time
20:17:49
Azimuth
Unknown
Elevation
Unknown
Doppler factor
Unknown
Orbital elements
Apogee altitude
1,379.66 km
Perigee altitude
1,192.286 km
Semi-major axis
7,664.11 km
Eccentricity
0.01222
Inclination
101.6477°
RAAN
60.4232°
Arg. of periapsis
262.1887°
True anomaly
119.02974°
Mean anomaly
117.7995°
Eccentric anomaly
118.41551°
Mean motion
3.23482 °/min
Orbital period
111.29 mins
BSTAR
0.00040247
Loading maneuver chart data...
Computing Atmospheric mass density...

Documentation

Showing up to 5 results
|